Location: Unspecified
(0.0000°N, 0.0000°E)
Time: 02:08:39
(UTC+00:00)

SR 7B - Visible Passes

Search period start: 13 March 2026 00:00
Search period end: 23 March 2026 00:00
Orbit: 894 x 929 km, 70.1° (Epoch: 12 March)

Date Brightness Start Highest point End Pass type
(mag) Time Alt. Az. Time Alt. Az. Time Alt. Az.
13 Mar 10.5 04:51:17 10° NNE 04:55:31 20° ENE 04:59:43 10° ESE visible
14 Mar 9.7 04:56:16 10° NNE 05:01:29 31° ENE 05:06:40 10° SE visible
15 Mar 8.8 05:01:40 10° N 05:07:25 49° ENE 05:13:09 10° SSE visible
16 Mar 8.0 05:07:23 10° NNW 05:13:22 77° ENE 05:19:19 10° SSE visible
17 Mar 7.8 05:13:22 10° NNW 05:19:19 69° WSW 05:25:14 10° S visible
18 Mar 10.6 03:36:56 10° NE 03:39:50 14° ENE 03:42:44 10° ESE visible
18 Mar 8.1 05:19:37 10° NW 05:25:15 44° WSW 05:30:53 10° S visible
19 Mar 10.0 03:41:18 10° NNE 03:45:48 22° ENE 03:50:17 10° ESE visible
19 Mar 8.7 05:26:12 10° NW 05:31:12 28° WSW 05:36:12 10° SSW visible
20 Mar 9.2 03:47:31 15° NNE 03:51:46 34° ENE 03:57:06 10° SE visible
20 Mar 9.1 05:33:18 10° WNW 05:37:10 18° WSW 05:41:02 10° SSW visible
21 Mar 8.4 03:56:31 46° NE 03:57:43 54° ENE 04:03:30 10° SSE visible
21 Mar 9.5 05:41:58 10° W 05:43:08 11° WSW 05:44:18 10° WSW visible
22 Mar 8.1 04:04:47 61° SSE 04:04:47 61° SSE 04:09:37 10° SSE visible
